TimeEST,TemperatureF,Dew PointF,Humidity,Sea Level PressureIn,VisibilityMPH,Wind Direction,Wind SpeedMPH,Gust SpeedMPH,PrecipitationIn,Events,Conditions,WindDirDegrees,DateUTC
12:53 AM,55.9,53.1,90,30.16,10.0,NE,3.5,-,N/A,,Clear,50,2012-11-19 05:53:00
1:53 AM,55.0,52.0,89,30.15,10.0,Calm,Calm,-,N/A,,Clear,0,2012-11-19 06:53:00
2:53 AM,54.0,52.0,93,30.15,10.0,North,3.5,-,N/A,,Clear,360,2012-11-19 07:53:00
3:53 AM,54.0,52.0,93,30.15,9.0,Calm,Calm,-,N/A,,Clear,0,2012-11-19 08:53:00
4:43 AM,51.8,51.8,100,30.15,1.8,Calm,Calm,-,N/A,,Clear,0,2012-11-19 09:43:00
4:51 AM,51.8,50.0,94,30.15,4.0,Calm,Calm,-,N/A,,Clear,0,2012-11-19 09:51:00
4:53 AM,52.0,51.1,97,30.15,6.0,NE,3.5,-,N/A,,Clear,50,2012-11-19 09:53:00
5:53 AM,53.1,52.0,96,30.15,10.0,NNE,3.5,-,N/A,,Clear,20,2012-11-19 10:53:00
6:53 AM,54.0,52.0,93,30.16,6.0,NE,4.6,-,N/A,,Clear,40,2012-11-19 11:53:00
7:53 AM,55.9,55.0,97,30.16,7.0,NNE,3.5,-,N/A,,Clear,20,2012-11-19 12:53:00
8:53 AM,60.1,54.0,80,30.17,10.0,NNE,6.9,-,N/A,,Clear,20,2012-11-19 13:53:00
9:53 AM,64.0,54.0,70,30.17,10.0,NNE,6.9,-,N/A,,Clear,30,2012-11-19 14:53:00
10:53 AM,66.0,53.1,63,30.15,10.0,North,10.4,-,N/A,,Clear,360,2012-11-19 15:53:00
11:53 AM,69.1,54.0,58,30.13,10.0,North,13.8,-,N/A,,Clear,10,2012-11-19 16:53:00
12:53 PM,70.0,53.1,55,30.10,10.0,NNW,13.8,20.7,N/A,,Clear,340,2012-11-19 17:53:00
1:53 PM,71.1,54.0,55,30.08,10.0,North,10.4,-,N/A,,Clear,360,2012-11-19 18:53:00
2:53 PM,70.0,55.0,59,30.06,10.0,NNW,10.4,-,N/A,,Clear,330,2012-11-19 19:53:00
3:53 PM,69.1,55.0,61,30.06,10.0,NNW,6.9,-,N/A,,Clear,340,2012-11-19 20:53:00
4:53 PM,68.0,55.0,63,30.07,10.0,NNE,5.8,-,N/A,,Clear,30,2012-11-19 21:53:00
5:53 PM,63.0,54.0,72,30.08,10.0,ENE,6.9,-,N/A,,Clear,60,2012-11-19 22:53:00
6:53 PM,60.1,54.0,80,30.09,10.0,ENE,8.1,-,N/A,,Clear,60,2012-11-19 23:53:00
7:53 PM,59.0,54.0,83,30.10,10.0,ENE,5.8,-,N/A,,Mostly Cloudy,60,2012-11-20 00:53:00
8:53 PM,59.0,54.0,83,30.11,10.0,NE,5.8,-,N/A,,Overcast,50,2012-11-20 01:53:00
9:53 PM,59.0,53.1,81,30.11,10.0,NE,8.1,-,N/A,,Overcast,40,2012-11-20 02:53:00
10:53 PM,59.0,53.1,81,30.11,10.0,NE,4.6,-,N/A,,Overcast,40,2012-11-20 03:53:00
11:53 PM,59.0,53.1,81,30.09,10.0,NE,5.8,-,N/A,,Overcast,50,2012-11-20 04:53:00